Carmi, IL

3:57 AM CST on December 08, 2016 (GMT -0600)
Carmi Municipal

Weather History for KCUL - March, 2013

Change the Weather History Date:

Tuesday, March 5, 2013

  Actual Average (KEHR) Record (KEHR)
Temperature  
Mean Temperature 40 °F -  
Max Temperature 48 °F 54 °F 77 °F (1956)
Min Temperature 33 °F 32 °F -3 °F (1960)
Degree Days  
Heating Degree Days 24    
Moisture  
Dew Point 35 °F    
Average Humidity 83    
Maximum Humidity 98    
Minimum Humidity 62    
Precipitation  
Precipitation 0.04 in - - ()
Sea Level Pressure  
Sea Level Pressure 29.85 in    
Wind  
Wind Speed 12 mph (WNW)    
Max Wind Speed 32 mph    
Max Gust Speed 41 mph    
Visibility 8 miles    
Events Rain , Snow    
Averages and records for this station are not official NWS values.
T = Trace of Precipitation, MM = Missing Value Source: NWS Daily Summary

Daily Weather History Graph

Daily Weather History Graph

Search for Another Location

Airport or City:

Trip Planner

Search our weather history database for the weather conditions in past years. The results will help you decide how hot, cold, wet, or windy it might be!

Date:

Astronomy

Mar. 05, 2013 Rise Set
Actual Time 6:18 AM CST 5:50 PM CST
Civil Twilight 5:51 AM CST 6:16 PM CST
Nautical Twilight 5:21 AM CST 6:47 PM CST
Astronomical Twilight 4:50 AM CST 7:17 PM CST
Moon 1:26 AM CST (3/5) 11:33 AM CST (3/5)
Length of Visible Light 12h 24m
Length of Day
11h 32m
Last Quarter, 40% of the Moon is Illuminated
Mar 5
Last Quarter
Mar 11
New
Mar 19
First Quarter
Mar 27
Full
Apr 2
Last Quarter

Hourly Weather History & Observations

Time (CST) Temp. Windchill Dew Point Humidity Pressure Visibility Wind Dir Wind Speed Gust Speed Precip Events Conditions
12:15 AM 47.3 °F - 34.9 °F 62% 29.82 in 10.0 mi ESE 9.2 mph - N/A   Overcast
12:35 AM 45.9 °F 41.2 °F 36.5 °F 70% 29.82 in 10.0 mi ESE 9.2 mph - N/A   Light Drizzle
12:55 AM 45.7 °F 41.0 °F 37.6 °F 73% 29.81 in 10.0 mi ESE 9.2 mph - N/A Rain Rain
1:15 AM 45.5 °F 41.3 °F 38.1 °F 75% 29.81 in 10.0 mi ESE 8.1 mph - N/A   Overcast
1:35 AM 45.1 °F 40.8 °F 38.5 °F 77% 29.80 in 10.0 mi ESE 8.1 mph - N/A Rain Rain
1:55 AM 45.1 °F 39.5 °F 39.0 °F 79% 29.79 in 10.0 mi ESE 11.5 mph - N/A   Light Drizzle
2:15 AM 45.5 °F 40.8 °F 39.2 °F 79% 29.79 in 10.0 mi ESE 9.2 mph - N/A   Overcast
2:35 AM 45.9 °F 41.2 °F 39.4 °F 78% 29.77 in 10.0 mi ESE 9.2 mph - N/A   Overcast
2:55 AM 45.5 °F 41.8 °F 40.1 °F 81% 29.77 in 10.0 mi ESE 6.9 mph - N/A   Overcast
3:15 AM 45.9 °F 42.3 °F 40.1 °F 80% 29.77 in 10.0 mi ESE 6.9 mph - N/A   Overcast
3:35 AM 45.9 °F 42.9 °F 40.5 °F 81% 29.76 in 10.0 mi ESE 5.8 mph - N/A   Overcast
3:55 AM 45.5 °F 44.2 °F 40.8 °F 84% 29.77 in 10.0 mi ESE 3.5 mph - N/A   Overcast
4:15 AM 45.9 °F - 40.6 °F 82% 29.77 in 10.0 mi Calm Calm - N/A   Overcast
4:35 AM 44.6 °F 43.1 °F 40.8 °F 87% 29.77 in 10.0 mi East 3.5 mph - N/A   Overcast
4:55 AM 45.5 °F - 40.8 °F 84% 29.77 in 10.0 mi Calm Calm - N/A   Overcast
5:15 AM 44.4 °F - 41.5 °F 90% 29.79 in 10.0 mi Calm Calm - N/A   Overcast
5:35 AM 44.2 °F 42.7 °F 41.7 °F 91% 29.79 in 10.0 mi NW 3.5 mph - N/A   Overcast
5:55 AM 44.2 °F - 41.9 °F 91% 29.79 in 10.0 mi Calm Calm - N/A   Overcast
6:15 AM 44.4 °F - 41.7 °F 90% 29.78 in 10.0 mi Calm Calm - N/A   Overcast
6:35 AM 44.6 °F 43.1 °F 41.4 °F 88% 29.77 in 10.0 mi NNE 3.5 mph - N/A   Overcast
6:55 AM 44.2 °F - 41.9 °F 91% 29.77 in 10.0 mi Calm Calm - N/A   Overcast
7:15 AM 44.6 °F 43.1 °F 41.9 °F 90% 29.77 in 10.0 mi NE 3.5 mph - N/A   Overcast
7:35 AM 45.3 °F - 42.8 °F 91% 29.77 in 10.0 mi Calm Calm - N/A   Overcast
7:55 AM 45.5 °F - 43.0 °F 91% 29.77 in 10.0 mi Calm Calm - N/A   Overcast
8:15 AM 46.4 °F - 43.5 °F 90% 29.78 in 10.0 mi Calm Calm - N/A   Mostly Cloudy
8:35 AM 46.8 °F - 43.2 °F 87% 29.77 in 10.0 mi Calm Calm - N/A   Scattered Clouds
8:55 AM 47.5 °F - 42.8 °F 84% 29.77 in 10.0 mi Calm Calm - N/A   Scattered Clouds
9:15 AM 48.2 °F - 41.5 °F 78% 29.77 in 10.0 mi West 9.2 mph - N/A   Overcast
9:35 AM 47.5 °F - 42.1 °F 82% 29.77 in 10.0 mi West 11.5 mph - N/A   Overcast
9:55 AM 45.9 °F 38.8 °F 40.3 °F 81% 29.77 in 10.0 mi WNW 17.3 mph - N/A   Overcast
10:15 AM 45.0 °F 36.9 °F 37.6 °F 75% 29.78 in 10.0 mi WNW 20.7 mph 29.9 mph N/A   Overcast
10:35 AM 44.2 °F 36.4 °F 35.8 °F 72% 29.79 in 10.0 mi WNW 18.4 mph 28.8 mph N/A   Overcast
10:55 AM 43.2 °F 33.8 °F 35.2 °F 74% 29.80 in 10.0 mi West 24.2 mph 27.6 mph N/A Rain Light Rain
11:15 AM 40.5 °F 30.2 °F 36.0 °F 84% 29.81 in 7.0 mi West 24.2 mph 31.1 mph 0.01 in Rain Light Rain
11:35 AM 39.2 °F 28.5 °F 36.5 °F 90% 29.79 in 5.0 mi WNW 24.2 mph 31.1 mph 0.01 in   Overcast
11:55 AM 38.3 °F 27.3 °F 35.8 °F 91% 29.79 in 7.0 mi WNW 24.2 mph 29.9 mph 0.01 in Rain Light Rain
12:15 PM 36.3 °F 24.7 °F 34.2 °F 92% 29.80 in 2.0 mi WNW 24.2 mph 33.4 mph 0.01 in Snow Light Snow
12:35 PM 34.7 °F 22.8 °F 33.8 °F 97% 29.81 in 0.5 mi WNW 23.0 mph 28.8 mph 0.02 in Snow Snow
12:55 PM 34.5 °F 23.1 °F 33.8 °F 97% 29.81 in 0.8 mi WNW 20.7 mph 25.3 mph 0.03 in Snow Light Snow
1:15 PM 34.3 °F 22.6 °F 33.8 °F 98% 29.82 in 0.5 mi WNW 21.9 mph 26.5 mph N/A Snow Snow
1:35 PM 34.5 °F 23.1 °F 33.8 °F 97% 29.83 in 0.8 mi West 20.7 mph 26.5 mph N/A Snow Snow
1:55 PM 34.7 °F 24.0 °F 33.8 °F 97% 29.83 in 2.0 mi West 18.4 mph 26.5 mph N/A Snow Light Snow
2:15 PM 34.9 °F 23.3 °F 33.4 °F 94% 29.84 in 2.0 mi West 21.9 mph 33.4 mph N/A Snow Light Snow
2:35 PM 35.4 °F 24.3 °F 33.3 °F 92% 29.85 in 7.0 mi West 20.7 mph - N/A   Overcast
2:55 PM 35.6 °F 24.0 °F 33.1 °F 91% 29.86 in 5.0 mi WNW 23.0 mph 31.1 mph N/A Snow Light Snow
3:15 PM 35.8 °F 23.9 °F 33.1 °F 90% 29.87 in 5.0 mi West 24.2 mph 36.8 mph N/A   Overcast
3:35 PM 36.1 °F 23.0 °F 32.4 °F 86% 29.88 in 7.0 mi WNW 31.1 mph 40.3 mph N/A   Overcast
3:55 PM 36.5 °F 23.3 °F 32.0 °F 84% 29.89 in 10.0 mi WNW 32.2 mph 39.1 mph N/A   Overcast
4:15 PM 36.5 °F 23.7 °F 30.7 °F 80% 29.90 in 10.0 mi WNW 29.9 mph 41.4 mph N/A   Overcast
4:35 PM 36.5 °F 25.2 °F 30.9 °F 80% 29.91 in 10.0 mi West 23.0 mph 31.1 mph N/A   Overcast
4:55 PM 36.1 °F 23.7 °F 30.0 °F 78% 29.92 in 10.0 mi West 27.6 mph 32.2 mph N/A   Overcast
5:15 PM 35.8 °F 23.7 °F 27.5 °F 72% 29.94 in 10.0 mi West 25.3 mph 40.3 mph N/A   Overcast
5:35 PM 35.6 °F 22.7 °F 27.0 °F 71% 29.95 in 10.0 mi West 28.8 mph 36.8 mph N/A   Overcast
5:55 PM 35.1 °F 23.5 °F 27.1 °F 73% 29.96 in 10.0 mi West 21.9 mph 36.8 mph N/A   Overcast
6:15 PM 34.3 °F 22.3 °F 25.5 °F 70% 29.97 in 10.0 mi West 23.0 mph 35.7 mph N/A   Overcast
6:35 PM 34.2 °F 22.6 °F 26.1 °F 72% 29.97 in 10.0 mi West 20.7 mph 32.2 mph N/A   Overcast
6:55 PM 33.8 °F 22.5 °F 26.6 °F 75% 29.97 in 10.0 mi West 19.6 mph 29.9 mph N/A   Overcast
7:15 PM 33.8 °F 21.6 °F 26.6 °F 75% 29.97 in 10.0 mi West 23.0 mph 29.9 mph N/A   Overcast
7:35 PM 34.0 °F 22.7 °F 26.6 °F 74% 29.97 in 10.0 mi West 19.6 mph 32.2 mph N/A   Overcast
7:55 PM 34.0 °F 22.7 °F 27.0 °F 75% 29.97 in 10.0 mi West 19.6 mph 27.6 mph N/A   Overcast
8:15 PM 34.0 °F 21.8 °F 27.3 °F 77% 29.97 in 10.0 mi West 23.0 mph 28.8 mph N/A   Overcast
8:35 PM 34.2 °F 22.3 °F 28.0 °F 78% 29.97 in 7.0 mi West 21.9 mph 33.4 mph N/A Snow Light Snow
8:55 PM 33.8 °F 21.6 °F 28.8 °F 82% 29.97 in 4.0 mi West 23.0 mph 28.8 mph N/A Snow Light Snow
9:15 PM 33.4 °F 21.7 °F 29.3 °F 85% 29.97 in 5.0 mi West 20.7 mph 25.3 mph N/A Snow Light Snow
9:35 PM 33.6 °F 21.9 °F 29.5 °F 85% 29.97 in 7.0 mi West 20.7 mph 28.8 mph N/A Snow Light Snow
9:55 PM 33.8 °F 22.5 °F 29.3 °F 84% 29.97 in 7.0 mi West 19.6 mph 27.6 mph N/A Snow Light Snow
10:15 PM 34.0 °F 21.8 °F 29.3 °F 83% 29.97 in 5.0 mi WNW 23.0 mph 28.8 mph N/A Snow Light Snow
10:35 PM 34.0 °F 22.1 °F 28.9 °F 82% 29.97 in 10.0 mi WNW 21.9 mph 27.6 mph N/A   Overcast
10:55 PM 34.5 °F 22.5 °F 28.4 °F 78% 29.98 in 10.0 mi WNW 23.0 mph 33.4 mph N/A   Overcast
11:15 PM 34.3 °F 21.5 °F 28.6 °F 79% 29.99 in 10.0 mi WNW 26.5 mph 33.4 mph N/A   Overcast
11:35 PM 34.3 °F 21.8 °F 28.6 °F 79% 29.99 in 10.0 mi West 25.3 mph 33.4 mph N/A   Overcast
11:55 PM 34.7 °F 22.0 °F 28.4 °F 78% 29.98 in 10.0 mi West 26.5 mph 33.4 mph N/A   Overcast